Wormley Airport

Jump to: basic info | weather | runways | comments

Related pages: nearby airports | nearby navaids | notams | map

Basic information (top)

Codes: 85LL
Location: lon 41.683899, lat -88.262299, elev 680 ft / 207 m msl
Status: small_airport

Weather (top)

Current conditions for Lewis University Airport 9nm (16km) ESE (rec'd 2014/12/19 22:55Z):

KLOT 192255Z AUTO 17004KT 10SM OVC025 00/M04 A3030

Airport forecast for Dupage Airport 13nm (25km) N (rec'd 2014/12/19 18:33Z):

TAF KDPA 191730Z 1918/2018 35003KT P6SM BKN025 
     FM200200 00000KT P6SM BKN015 
     FM201600 20003KT P6SM OVC020

Runways (top)

N/S: 2,300 x 100 ft (701 x 30 m) — grass — not lighted

Latest comments (top)

No comments yet for Wormley Airport

More... (top)

See also NOTAMs and nearby airports and navaids, or visit the Wormley Airport page at the main OurAirports website..